Notices

What's New in latest Release from April 7th, 2021:

- Updated Glossary, including Speed of Maximum Gust, and Total Hourly Precipitation

- Updated national and regional climate services offices contacts and prices information

- Addition of station inventory lists for 1981-2010, 1971-2000, and 1961-1990 Normals.

If you haven't already, please take our survey and provide feedback about our website: https://eccc.sondage-survey.ca/f/LanguageSelection.aspx?s=442ca660-fcf1-47c0-95a9-59707d6fd709

Hourly Data Report for January 02, 2021

SHEARWATER RCS
NOVA SCOTIA
Current Station Operator: ECCC - MSC

44°37'47.000" N
63°30'48.000" W
24.00 m
8205092
71264
AAW

Download Data

Hourly Data (January 2021)
Hourly Data Report for January 2, 2021
TIME
LST
Temp Definition
°C
Dew Point Definition
°C
Rel Hum Definition
%
Precip. Amount Definition
mm

Wind Dir Definition
10's deg

Wind Spd Definition
km/h
Visibility Definition
km
Stn Press Definition
kPa
Hmdx Definition


Wind Chill Definition


Weather Definition


00:00 -2.1 -5.1 80 0.0 25 6   102.34   -4 LegendNANA
01:00 -2.5 -4.9 84 0.0 22 4   102.27   -4 LegendNANA
02:00 -2.4 -4.5 85 0.0 30 5   102.25   -4 LegendNANA
03:00 -2.6 -4.8 85 0.0 2 5   102.19   -5 LegendNANA
04:00 -2.5 -5.2 82 0.0 3 6   102.10   -5 LegendNANA
05:00 -2.8 -5.5 81 0.0 7 5   102.03   -5 LegendNANA
06:00 -2.9 -5.0 85 0.0 5 11   101.94   -7 LegendNANA
07:00 -2.5 -5.1 82 0.0 4 11   101.91   -7 LegendNANA
08:00 -2.3 -4.7 84 0.0 4 12   101.80   -7 LegendNANA
09:00 -2.0 -4.1 85 0.0 4 11   101.78   -6 LegendNANA
10:00 -0.6 -2.4 88 0.0 6 14   101.51   -5 LegendNANA
11:00 0.8 -0.1 93 0.0 10 14   101.28     LegendNANA
12:00 0.5 -0.2 95 0.8 10 18   100.89     LegendNANA
13:00 1.6 0.9 95 2.2 10 19   100.56     LegendNANA
14:00 2.3 1.3 93 1.7 10 28   100.21     LegendNANA
15:00 1.5 0.9 95 2.9 9 27   99.89     LegendNANA
16:00 1.9 1.3 96 2.4 8 32   99.65     LegendNANA
17:00 2.2 1.5 95 5.2 7 31   99.41     LegendNANA
18:00 1.3 0.5 95 5.9 5 24   99.34     LegendNANA
19:00 0.8 0.1 95 1.8 3 32   99.16     LegendNANA
20:00 0.7 -0.1 95 1.1 1 26   99.18     LegendNANA
21:00 -0.2 -0.7 97 0.3 35 31   99.42   -7 LegendNANA
22:00 0.5 0.1 97 0.6 35 38   99.56     LegendNANA
23:00 0.1 -0.5 96 0.3 33 33   99.88     LegendNANA

Notes on Data Quality.

Legend

  • E = Estimated
  • M = Missing
  • NA = Not Available*
  • [empty] = Indicates an unobserved value
Date modified: